Regional Weather Roundup
Issued by NWS Cleveland, OH

Home | Current Version | Previous Version | Text Only | Print | Product List | Glossary Off
Versions: 1 2 3 4 5 6 7 8 9 10 11 12 13 14 15 16 17 18 19 20 21 22 23 24 25 26 27 28 29 30 31 32 33 34 35 36 37 38 39 40 41 42 43 44 45 46 47 48 49 50

000
ASUS41 KCLE 192110
RWRCLE
OHIO REGIONAL WEATHER ROUNDUP
NATIONAL WEATHER SERVICE WILMINGTON, OH
500 PM EDT SAT APR 19 2014

NOTE: "FAIR" INDICATES FEW OR NO CLOUDS BELOW 12,000 FEET WITH NO
SIGNIFICANT WEATHER AND/OR OBSTRUCTIONS TO VISIBILITY.

OHZ001>008-015>018-024>027-034-035-043-044-192200-
   NORTHWEST OHIO

CITY           SKY/WX    TMP DP  RH WIND       PRES   REMARKS
DEFIANCE       SUNNY     58  28  32 E13       30.34F
FINDLAY        SUNNY     57  24  28 NE14      30.33F
TOLEDO EXPRESS SUNNY     54  27  35 E15       30.36F
TOLEDO METCALF SUNNY     52  27  38 E10G18    30.38F
LIMA           SUNNY     59  29  31 NE15      30.31F
$$

OHZ009>014-019>023-028>033-038-089-192200-
   NORTHEAST OHIO

CITY           SKY/WX    TMP DP  RH WIND       PRES   REMARKS
CLE-HOPKINS    SUNNY     51  28  41 N16       30.39F
CLE-LAKEFRONT  SUNNY     45  37  73 N15G22    30.36F
CUY CO. ARPT   SUNNY     54  27  35 NE15      30.36F
LORAIN-ELYRIA  SUNNY     52  23  32 NE14      30.37F
ASHTABULA      SUNNY     50  25  37 NE9       30.37F
AKRON-CANTON   MOSUNNY   57  22  26 NE12      30.31F
WOOSTER        SUNNY     58  35  42 N14       30.31F
MANSFIELD      SUNNY     57  23  26 N9G18     30.31F
YOUNGSTOWN     MOSUNNY   59  26  28 NE10      30.31F
$$

OHZ042-051>053-060>062-070>072-077>081-192200-
  SOUTHWEST OHIO

CITY           SKY/WX    TMP DP  RH WIND       PRES   REMARKS
CINC-COVINGTON SUNNY     69  36  29 NE12      30.23F
CINC-LUNKEN    SUNNY     68  37  32 NE15      30.24F
HAMILTON       SUNNY     68  38  33 NE13G18   30.26F
DAYTON         SUNNY     65  36  34 NE14      30.29F
WRIGHT-PAT AFB SUNNY     64  35  33 NE8G20    30.27F
DAYTON GENERAL SUNNY     66  36  32 NE16G22   30.26F
WILMINGTON     SUNNY     64  35  34 NE14G22   30.26S
$$

OHZ036-037-039>041-045>050-054>059-063>069-073>076-082>088-192200-
  CENTRAL AND SOUTHEAST OHIO

CITY           SKY/WX    TMP DP  RH WIND       PRES   REMARKS
COLUMBUS       MOSUNNY   66  32  28 NE9G20    30.27F
OSU AIRPORT    SUNNY     63  31  30 NE13      30.27F
BOLTON FIELD   SUNNY     63  36  36 NE10G18   30.27F
RICKENBACK AFB SUNNY     67  28  23 NE14G20   30.26S
NEWARK         SUNNY     64  29  26 NE10      30.27S
MARION         SUNNY     59  26  28 NE14      30.31F
LANCASTER      SUNNY     66  34  30 NE14      30.27S
ZANESVILLE     SUNNY     64  28  25 N9        30.27F
NEW PHILLY     SUNNY     62  19  19 NE8G20    30.29F
$$



USA.gov is the U.S. government's official web portal to all federal, state and local government web resources and services.